����,���ϕ���(m/s),���ϕ���,�ő�u�ԕ���(m/s),�ő啗��������,�C��(��),���x(%),10���Ԉړ��ώZ�J��(mm),1���Ԉړ��ώZ�J��(mm),���J��(mm),�݌v�J��(mm)
2020-08-10T00:00:00+09:00,2.7,��,3.8,��쐼,26.8,85.8,0,0,0,0
2020-08-10T00:01:00+09:00,2.8,��,3.8,��쐼,26.8,86.2,0,0,0,0
2020-08-10T00:02:00+09:00,2.8,��,3.8,��쐼,26.8,86.3,0,0,0,0
2020-08-10T00:03:00+09:00,2.8,��,3.8,��쐼,26.8,86.4,0,0,0,0
2020-08-10T00:04:00+09:00,2.8,��,3.8,��쐼,26.8,86.6,0,0,0,0
2020-08-10T00:05:00+09:00,2.8,��,3.8,��쐼,26.7,86.7,0,0,0,0
2020-08-10T00:06:00+09:00,2.8,��,3.6,��쐼,26.7,86.8,0,0,0,0
2020-08-10T00:07:00+09:00,2.9,��,3.6,��쐼,26.7,86.9,0,0,0,0
2020-08-10T00:08:00+09:00,3,��,3.6,��쐼,26.6,87.1,0,0,0,0
2020-08-10T00:09:00+09:00,3,��,3.6,��쐼,26.6,87.4,0,0,0,0
2020-08-10T00:10:00+09:00,3,��,3.7,��쐼,26.7,87.7,0,0,0,0
2020-08-10T00:11:00+09:00,3,��쐼,3.7,��쐼,26.7,87.5,0,0,0,0
2020-08-10T00:12:00+09:00,3,��쐼,3.7,��쐼,26.6,87.6,0,0,0,0
2020-08-10T00:13:00+09:00,3.1,��쐼,3.8,��쐼,26.6,87.8,0,0,0,0
2020-08-10T00:14:00+09:00,3.1,��쐼,3.8,��쐼,26.7,87.6,0,0,0,0
2020-08-10T00:15:00+09:00,3.1,��쐼,3.8,��쐼,26.8,87.1,0,0,0,0
2020-08-10T00:16:00+09:00,3.1,��쐼,3.8,��쐼,26.8,86.9,0,0,0,0
2020-08-10T00:17:00+09:00,3.1,��쐼,3.8,��쐼,26.8,86.8,0,0,0,0
2020-08-10T00:18:00+09:00,3.1,��쐼,3.8,��쐼,26.8,86.7,0,0,0,0
2020-08-10T00:19:00+09:00,3.1,��쐼,3.8,��쐼,26.8,86.6,0,0,0,0
2020-08-10T00:20:00+09:00,3.1,��쐼,3.8,��쐼,26.8,86.4,0,0,0,0
2020-08-10T00:21:00+09:00,3,��쐼,3.8,��쐼,26.8,86.5,0,0,0,0
2020-08-10T00:22:00+09:00,3,��쐼,3.8,��쐼,26.7,86.7,0,0,0,0
2020-08-10T00:23:00+09:00,2.9,��쐼,3.8,��쐼,26.7,87,0,0,0,0
2020-08-10T00:24:00+09:00,2.9,��쐼,3.4,��쐼,26.7,87.1,0,0,0,0
2020-08-10T00:25:00+09:00,2.9,��쐼,3.7,��쐼,26.7,87.2,0,0,0,0
2020-08-10T00:26:00+09:00,2.9,��,3.7,��쐼,26.7,87.2,0,0,0,0
2020-08-10T00:27:00+09:00,2.9,��,3.7,��쐼,26.6,87.6,0,0,0,0
2020-08-10T00:28:00+09:00,2.9,��,3.7,��쐼,26.6,88,0,0,0,0
2020-08-10T00:29:00+09:00,2.9,��,3.7,��쐼,26.6,88.1,0,0,0,0
2020-08-10T00:30:00+09:00,2.9,��,3.7,��쐼,26.6,88.3,0,0,0,0
2020-08-10T00:31:00+09:00,2.9,��,3.7,��쐼,26.6,88.3,0,0,0,0
2020-08-10T00:32:00+09:00,2.9,��,3.8,��쐼,26.6,88.3,0,0,0,0
2020-08-10T00:33:00+09:00,3,��,4,��쐼,26.6,88.3,0,0,0,0
2020-08-10T00:34:00+09:00,3,��,4,��쐼,26.6,88.2,0,0,0,0
2020-08-10T00:35:00+09:00,2.9,��,4,��쐼,26.6,87.9,0,0,0,0
2020-08-10T00:36:00+09:00,3,��,4,��쐼,26.7,87.7,0,0,0,0
2020-08-10T00:37:00+09:00,2.9,��,4,��쐼,26.7,87.5,0,0,0,0
2020-08-10T00:38:00+09:00,2.9,��,4,��쐼,26.6,87.5,0,0,0,0
2020-08-10T00:39:00+09:00,2.9,��,4,��쐼,26.7,87.6,0,0,0,0
2020-08-10T00:40:00+09:00,2.9,��,4,��쐼,26.7,87.5,0,0,0,0
2020-08-10T00:41:00+09:00,2.9,��,4,��쐼,26.7,87.3,0,0,0,0
2020-08-10T00:42:00+09:00,2.8,��,4,��쐼,26.8,87.1,0,0,0,0
2020-08-10T00:43:00+09:00,2.8,��,3.8,��,26.8,86.8,0,0,0,0
2020-08-10T00:44:00+09:00,2.8,��,3.8,��,26.8,86.6,0,0,0,0
2020-08-10T00:45:00+09:00,2.8,��,3.6,��,26.8,86.6,0,0,0,0
2020-08-10T00:46:00+09:00,2.8,��,3.5,��,26.8,86.6,0,0,0,0
2020-08-10T00:47:00+09:00,2.8,��,4.2,��쐼,26.8,86.5,0,0,0,0
2020-08-10T00:48:00+09:00,2.9,��,4.2,��쐼,26.9,86.2,0,0,0,0
2020-08-10T00:49:00+09:00,2.9,��,4.2,��쐼,27,86,0,0,0,0
2020-08-10T00:50:00+09:00,2.9,��,4.2,��쐼,27,85.6,0,0,0,0
2020-08-10T00:51:00+09:00,2.9,��,4.2,��쐼,27,85.5,0,0,0,0
2020-08-10T00:52:00+09:00,2.9,��,4.2,��쐼,26.9,85.6,0,0,0,0
2020-08-10T00:53:00+09:00,2.9,��,4.2,��쐼,26.8,85.8,0,0,0,0
2020-08-10T00:54:00+09:00,2.9,��,4.2,��쐼,26.9,85.9,0,0,0,0
2020-08-10T00:55:00+09:00,2.9,��,4.2,��쐼,27.1,85.4,0,0,0,0
2020-08-10T00:56:00+09:00,3,��,4.2,��쐼,27.1,84.9,0,0,0,0
2020-08-10T00:57:00+09:00,3,��,3.8,��,27.1,84.7,0,0,0,0
2020-08-10T00:58:00+09:00,3,��,4.2,��,27.1,84.6,0,0,0,0
2020-08-10T00:59:00+09:00,3,��,4.2,��,27.2,84.4,0,0,0,0
2020-08-10T01:00:00+09:00,3.1,��,4.2,��,27.1,84,0,0,0,0
2020-08-10T01:01:00+09:00,3.1,��,4.2,��,27.1,84.1,0,0,0,0
2020-08-10T01:02:00+09:00,3.2,��,4.2,��,27.1,84.2,0,0,0,0
2020-08-10T01:03:00+09:00,3.1,��,4.2,��,27,84.5,0,0,0,0
2020-08-10T01:04:00+09:00,3.1,��,4.2,��,27,84.8,0,0,0,0
2020-08-10T01:05:00+09:00,3.1,��,4.2,��,27,85,0,0,0,0
2020-08-10T01:06:00+09:00,3.1,��쐼,4.2,��,27,85,0,0,0,0
2020-08-10T01:07:00+09:00,3.1,��쐼,4.2,��,26.9,85.2,0,0,0,0
2020-08-10T01:08:00+09:00,3.1,��쐼,3.9,��,26.9,85.5,0,0,0,0
2020-08-10T01:09:00+09:00,3,��쐼,3.7,��쐼,26.8,85.7,0,0,0,0
2020-08-10T01:10:00+09:00,3,��쐼,3.8,��,26.8,86,0,0,0,0
2020-08-10T01:11:00+09:00,3,��쐼,3.8,��,26.8,85.9,0,0,0,0
2020-08-10T01:12:00+09:00,3,��쐼,3.8,��,26.9,85.8,0,0,0,0
2020-08-10T01:13:00+09:00,3.1,��쐼,3.8,��,26.9,85.7,0,0,0,0
2020-08-10T01:14:00+09:00,3.1,��쐼,3.9,��,26.9,85.7,0,0,0,0
2020-08-10T01:15:00+09:00,3.1,��쐼,3.9,��,26.9,85.8,0,0,0,0
2020-08-10T01:16:00+09:00,3.2,��,4.3,��쐼,27,85.7,0,0,0,0
2020-08-10T01:17:00+09:00,3.2,��,4.3,��쐼,27.1,85.2,0,0,0,0
2020-08-10T01:18:00+09:00,3.2,��,4.3,��쐼,27.1,84.9,0,0,0,0
2020-08-10T01:19:00+09:00,3.2,��,4.3,��쐼,27.1,84.7,0,0,0,0
2020-08-10T01:20:00+09:00,3.1,��,4.3,��쐼,27,84.8,0,0,0,0
2020-08-10T01:21:00+09:00,3.1,��,4.3,��쐼,26.9,85.1,0,0,0,0
2020-08-10T01:22:00+09:00,3,��,4.3,��쐼,26.9,85.4,0,0,0,0
2020-08-10T01:23:00+09:00,3,��,4.3,��쐼,26.9,85.5,0,0,0,0
2020-08-10T01:24:00+09:00,3,��,4.3,��쐼,26.8,85.7,0,0,0,0
2020-08-10T01:25:00+09:00,2.9,��,4.3,��쐼,26.9,85.6,0,0,0,0
2020-08-10T01:26:00+09:00,2.8,��,3.9,��쐼,27,85.5,0,0,0,0
2020-08-10T01:27:00+09:00,2.7,��,3.5,��쐼,27,85.3,0,0,0,0
2020-08-10T01:28:00+09:00,2.6,��,3.5,��쐼,27,85.3,0,0,0,0
2020-08-10T01:29:00+09:00,2.6,��,3.5,��쐼,27,85.2,0,0,0,0
2020-08-10T01:30:00+09:00,2.7,��,3.9,��쐼,27,85.1,0,0,0,0
2020-08-10T01:31:00+09:00,2.7,��,3.9,��쐼,27,85.1,0,0,0,0
2020-08-10T01:32:00+09:00,2.7,��,3.9,��쐼,26.9,85.1,0,0,0,0
2020-08-10T01:33:00+09:00,2.6,��,3.9,��쐼,26.8,85.4,0,0,0,0
2020-08-10T01:34:00+09:00,2.5,��,3.9,��쐼,26.8,85.6,0,0,0,0
2020-08-10T01:35:00+09:00,2.5,��,3.9,��쐼,26.8,85.9,0,0,0,0
2020-08-10T01:36:00+09:00,2.5,��,3.9,��쐼,26.8,86,0,0,0,0
2020-08-10T01:37:00+09:00,2.6,��,3.9,��쐼,26.8,86,0,0,0,0
2020-08-10T01:38:00+09:00,2.7,��,3.9,��쐼,26.9,86,0,0,0,0
2020-08-10T01:39:00+09:00,2.7,��,3.9,��쐼,26.9,85.7,0,0,0,0
2020-08-10T01:40:00+09:00,2.6,��,3.4,��쐼,26.9,85.6,0,0,0,0
2020-08-10T01:41:00+09:00,2.6,��쐼,3.4,��쐼,26.8,85.7,0,0,0,0
2020-08-10T01:42:00+09:00,2.5,��쐼,3.4,��쐼,26.8,85.8,0,0,0,0
2020-08-10T01:43:00+09:00,2.5,��쐼,3.4,��쐼,26.8,86.1,0,0,0,0
2020-08-10T01:44:00+09:00,2.5,��쐼,3.4,��쐼,26.8,86.3,0,0,0,0
2020-08-10T01:45:00+09:00,2.5,��쐼,3.4,��쐼,26.8,86.3,0,0,0,0
2020-08-10T01:46:00+09:00,2.5,��쐼,3.4,��쐼,26.8,86.3,0,0,0,0
2020-08-10T01:47:00+09:00,2.5,��쐼,3.4,��쐼,26.8,86.2,0,0,0,0
2020-08-10T01:48:00+09:00,2.5,��쐼,3.2,��쐼,26.8,85.9,0,0,0,0
2020-08-10T01:49:00+09:00,2.4,��쐼,3.2,��쐼,26.8,85.8,0,0,0,0
2020-08-10T01:50:00+09:00,2.4,��쐼,3.2,��쐼,26.9,85.7,0,0,0,0
2020-08-10T01:51:00+09:00,2.4,��쐼,3.2,��쐼,26.9,85.5,0,0,0,0
2020-08-10T01:52:00+09:00,2.5,��쐼,3.4,��쐼,27,85.3,0,0,0,0
2020-08-10T01:53:00+09:00,2.5,��쐼,3.4,��쐼,27,84.9,0,0,0,0
2020-08-10T01:54:00+09:00,2.6,��쐼,3.4,��쐼,27,84.7,0,0,0,0
2020-08-10T01:55:00+09:00,2.6,��쐼,3.4,��쐼,27,84.6,0,0,0,0
2020-08-10T01:56:00+09:00,2.6,��쐼,3.4,��쐼,27,84.7,0,0,0,0
2020-08-10T01:57:00+09:00,2.6,��쐼,3.4,��쐼,27,84.7,0,0,0,0
2020-08-10T01:58:00+09:00,2.6,��쐼,3.4,��쐼,27,84.7,0,0,0,0
2020-08-10T01:59:00+09:00,2.6,��쐼,3.4,��쐼,27,84.8,0,0,0,0
2020-08-10T02:00:00+09:00,2.5,��쐼,3.4,��쐼,27,84.9,0,0,0,0
2020-08-10T02:01:00+09:00,2.5,��쐼,3.4,��쐼,27,85,0,0,0,0
2020-08-10T02:02:00+09:00,2.3,��쐼,3.4,��쐼,26.9,85.1,0,0,0,0
2020-08-10T02:03:00+09:00,2.3,��쐼,3.2,��쐼,26.9,85.1,0,0,0,0
2020-08-10T02:04:00+09:00,2.2,��쐼,3.2,��쐼,27,85.1,0,0,0,0
2020-08-10T02:05:00+09:00,2.2,��쐼,2.8,��쐼,27,85,0,0,0,0
2020-08-10T02:06:00+09:00,2.2,��쐼,3.2,��,27,84.9,0,0,0,0
2020-08-10T02:07:00+09:00,2.3,��,3.3,��,27.1,84.4,0,0,0,0
2020-08-10T02:08:00+09:00,2.3,��,3.7,��,27.2,84,0,0,0,0
2020-08-10T02:09:00+09:00,2.3,��,3.7,��,27.2,83.6,0,0,0,0
2020-08-10T02:10:00+09:00,2.4,��,3.7,��,27.2,83.4,0,0,0,0
2020-08-10T02:11:00+09:00,2.5,��,3.7,��,27.2,83.3,0,0,0,0
2020-08-10T02:12:00+09:00,2.6,��,3.7,��,27.2,83.2,0,0,0,0
2020-08-10T02:13:00+09:00,2.7,��,3.7,��,27.3,83.1,0,0,0,0
2020-08-10T02:14:00+09:00,2.7,��,3.7,��,27.3,83,0,0,0,0
2020-08-10T02:15:00+09:00,2.8,��,4,��,27.3,82.9,0,0,0,0
2020-08-10T02:16:00+09:00,2.8,��,4.3,��,27.4,82.6,0,0,0,0
2020-08-10T02:17:00+09:00,2.8,��,4.3,��,27.4,82.3,0,0,0,0
2020-08-10T02:18:00+09:00,2.9,��,4.3,��,27.4,82.2,0,0,0,0
2020-08-10T02:19:00+09:00,2.9,��,4.3,��,27.4,82.1,0,0,0,0
2020-08-10T02:20:00+09:00,2.9,��,4.3,��,27.4,81.9,0,0,0,0
2020-08-10T02:21:00+09:00,2.9,��,4.3,��,27.4,81.9,0,0,0,0
2020-08-10T02:22:00+09:00,2.9,��,4.3,��,27.4,81.7,0,0,0,0
2020-08-10T02:23:00+09:00,2.8,��,4.3,��,27.4,81.6,0,0,0,0
2020-08-10T02:24:00+09:00,2.8,��,4.3,��,27.4,81.6,0,0,0,0
2020-08-10T02:25:00+09:00,2.8,��,4.3,��,27.5,81.4,0,0,0,0
2020-08-10T02:26:00+09:00,2.7,��,4,��,27.5,81.2,0,0,0,0
2020-08-10T02:27:00+09:00,2.7,��,4,��,27.5,81.1,0,0,0,0
2020-08-10T02:28:00+09:00,2.6,��,3.5,��,27.5,81.1,0,0,0,0
2020-08-10T02:29:00+09:00,2.5,��,3.5,��,27.5,81.1,0,0,0,0
2020-08-10T02:30:00+09:00,2.5,��,3.3,��,27.5,81.1,0,0,0,0
2020-08-10T02:31:00+09:00,2.4,��,3.3,��,27.5,81.2,0,0,0,0
2020-08-10T02:32:00+09:00,2.4,��,3.3,��,27.4,81.3,0,0,0,0
2020-08-10T02:33:00+09:00,2.4,��,3.3,��,27.4,81.5,0,0,0,0
2020-08-10T02:34:00+09:00,2.4,��,3.3,��,27.4,81.6,0,0,0,0
2020-08-10T02:35:00+09:00,2.3,��,3.3,��,27.4,81.6,0,0,0,0
2020-08-10T02:36:00+09:00,2.2,��,3.3,��,27.3,81.9,0,0,0,0
2020-08-10T02:37:00+09:00,2.2,��,3.3,��,27.1,82.3,0,0,0,0
2020-08-10T02:38:00+09:00,2.2,��쐼,3.3,��,27.1,82.9,0,0,0,0
2020-08-10T02:39:00+09:00,2.2,��쐼,3.2,��,27.1,83.3,0,0,0,0
2020-08-10T02:40:00+09:00,2.2,��쐼,3.6,��쐼,27.2,83.3,0,0,0,0
2020-08-10T02:41:00+09:00,2.3,��쐼,3.6,��쐼,27.2,83.2,0,0,0,0
2020-08-10T02:42:00+09:00,2.3,��쐼,3.6,��쐼,27.2,83,0,0,0,0
2020-08-10T02:43:00+09:00,2.3,��쐼,3.6,��쐼,27.3,82.9,0,0,0,0
2020-08-10T02:44:00+09:00,2.3,��쐼,3.6,��쐼,27.4,82.6,0,0,0,0
2020-08-10T02:45:00+09:00,2.2,��쐼,3.6,��쐼,27.3,82.6,0,0,0,0
2020-08-10T02:46:00+09:00,2.3,��쐼,3.6,��쐼,27.3,82.8,0,0,0,0
2020-08-10T02:47:00+09:00,2.3,��,3.6,��쐼,27.3,82.9,0,0,0,0
2020-08-10T02:48:00+09:00,2.3,��,3.6,��쐼,27.4,82.8,0,0,0,0
2020-08-10T02:49:00+09:00,2.2,��,3.6,��쐼,27.4,82.6,0,0,0,0
2020-08-10T02:50:00+09:00,2.1,��,3,��쐼,27.3,82.5,0,0,0,0
2020-08-10T02:51:00+09:00,2.1,��,3,��쐼,27.3,82.3,0,0,0,0
2020-08-10T02:52:00+09:00,2.1,��,3,��쐼,27.3,82.3,0,0,0,0
2020-08-10T02:53:00+09:00,2.1,��,3,��쐼,27.5,82.1,0,0,0,0
2020-08-10T02:54:00+09:00,2.1,��,3,��쐼,27.5,81.8,0,0,0,0
2020-08-10T02:55:00+09:00,2.2,��,3,��쐼,27.4,81.7,0,0,0,0
2020-08-10T02:56:00+09:00,2.2,��,3,��쐼,27.5,81.7,0,0,0,0
2020-08-10T02:57:00+09:00,2.2,��,3,��쐼,27.4,81.7,0,0,0,0
2020-08-10T02:58:00+09:00,2.3,��,3.5,��,27.4,81.8,0,0,0,0
2020-08-10T02:59:00+09:00,2.4,��,3.5,��,27.6,81.8,0,0,0,0
2020-08-10T03:00:00+09:00,2.4,��,3.5,��,27.5,81.5,0,0,0,0
2020-08-10T03:01:00+09:00,2.4,��,3.5,��,27.5,81.5,0,0,0,0
2020-08-10T03:02:00+09:00,2.4,��,3.5,��,27.5,81.6,0,0,0,0
2020-08-10T03:03:00+09:00,2.3,��,3.5,��,27.5,81.7,0,0,0,0
2020-08-10T03:04:00+09:00,2.3,��,3.5,��,27.5,81.7,0,0,0,0
2020-08-10T03:05:00+09:00,2.3,��,3.5,��,27.5,81.9,0,0,0,0
2020-08-10T03:06:00+09:00,2.2,��,3.5,��,27.5,81.9,0,0,0,0
2020-08-10T03:07:00+09:00,2.2,��,3.5,��,27.5,81.8,0,0,0,0
2020-08-10T03:08:00+09:00,2.2,��,3.5,��,27.5,81.8,0,0,0,0
2020-08-10T03:09:00+09:00,2.2,��,3.2,��,27.5,81.6,0,0,0,0
2020-08-10T03:10:00+09:00,2.2,��쓌,3.2,��,27.6,81.6,0,0,0,0
2020-08-10T03:11:00+09:00,2.3,��쓌,4.1,��쓌,27.5,81.5,0,0,0,0
2020-08-10T03:12:00+09:00,2.3,��쓌,4.1,��쓌,27.6,81.5,0,0,0,0
2020-08-10T03:13:00+09:00,2.3,��쓌,4.1,��쓌,27.7,81.3,0,0,0,0
2020-08-10T03:14:00+09:00,2.4,��쓌,4.1,��쓌,27.7,81.1,0,0,0,0
2020-08-10T03:15:00+09:00,2.5,��쓌,4.2,��쓌,27.7,81.1,0,0,0,0
2020-08-10T03:16:00+09:00,2.7,��쓌,5.2,��쓌,27.8,80.9,0,0,0,0
2020-08-10T03:17:00+09:00,2.8,��쓌,5.2,��쓌,27.9,80.4,0,0,0,0
2020-08-10T03:18:00+09:00,2.9,��쓌,5.2,��쓌,28,79.9,0,0,0,0
2020-08-10T03:19:00+09:00,2.9,��쓌,5.2,��쓌,27.9,79.7,0,0,0,0
2020-08-10T03:20:00+09:00,3,��쓌,5.2,��쓌,28,79.8,0,0,0,0
2020-08-10T03:21:00+09:00,3,��쓌,5.2,��쓌,28,79.6,0,0,0,0
2020-08-10T03:22:00+09:00,3,��쓌,5.2,��쓌,28,79.5,0,0,0,0
2020-08-10T03:23:00+09:00,3.1,��쓌,5.3,��,28.1,79.3,0,0,0,0
2020-08-10T03:24:00+09:00,3.2,��쓌,5.3,��,28.1,79.1,0,0,0,0
2020-08-10T03:25:00+09:00,3.2,��쓌,5.3,��,28.1,79,0,0,0,0
2020-08-10T03:26:00+09:00,3.2,��쓌,5.3,��,28.1,79.1,0,0,0,0
2020-08-10T03:27:00+09:00,3.2,��쓌,5.3,��,28.1,79,0,0,0,0
2020-08-10T03:28:00+09:00,3.2,��,5.3,��,28.1,79,0,0,0,0
2020-08-10T03:29:00+09:00,3.3,��쓌,5.3,��,28.2,78.8,0,0,0,0
2020-08-10T03:30:00+09:00,3.4,��쓌,5.6,�쓌,28.2,78.5,0,0,0,0
2020-08-10T03:31:00+09:00,3.4,��쓌,5.7,�쓌,28.2,78.3,0,0,0,0
2020-08-10T03:32:00+09:00,3.5,��쓌,5.7,�쓌,28.2,78.5,0,0,0,0
2020-08-10T03:33:00+09:00,3.5,��쓌,5.7,�쓌,28.2,78.3,0,0,0,0
2020-08-10T03:34:00+09:00,3.5,��쓌,5.7,�쓌,28.2,78.3,0,0,0,0
2020-08-10T03:35:00+09:00,3.5,��쓌,5.7,�쓌,28.2,78.4,0,0,0,0
2020-08-10T03:36:00+09:00,3.4,��쓌,5.7,�쓌,28.2,78.5,0,0,0,0
2020-08-10T03:37:00+09:00,3.4,��쓌,5.7,�쓌,28.2,78.5,0,0,0,0
2020-08-10T03:38:00+09:00,3.4,��쓌,5.7,�쓌,28.1,78.5,0,0,0,0
2020-08-10T03:39:00+09:00,3.3,��쓌,5.7,�쓌,28.1,78.6,0,0,0,0
2020-08-10T03:40:00+09:00,3.2,��쓌,5.7,�쓌,28.1,78.7,0,0,0,0
2020-08-10T03:41:00+09:00,3.2,��쓌,5.1,��쓌,28.2,78.7,0,0,0,0
2020-08-10T03:42:00+09:00,3.1,��쓌,5.1,��쓌,28.2,78.6,0,0,0,0
2020-08-10T03:43:00+09:00,3,��쓌,4.6,�쓌,28.2,78.6,0,0,0,0
2020-08-10T03:44:00+09:00,3,��쓌,4.6,�쓌,28.2,78.6,0,0,0,0
2020-08-10T03:45:00+09:00,3.1,��쓌,4.9,�쐼,28.2,78.5,0,0,0,0
2020-08-10T03:46:00+09:00,3.1,��쓌,5.6,��쐼,28.2,78.6,0,0,0,0
2020-08-10T03:47:00+09:00,3.1,��쓌,5.6,��쐼,28.2,78.4,0,0,0,0
2020-08-10T03:48:00+09:00,3.1,��쓌,5.6,��쐼,28.2,78.5,0,0,0,0
2020-08-10T03:49:00+09:00,3.2,��쓌,5.6,��쐼,28.3,78.3,0,0,0,0
2020-08-10T03:50:00+09:00,3.4,��쓌,5.6,��쐼,28.3,78.1,0,0,0,0
2020-08-10T03:51:00+09:00,3.3,��쓌,5.6,��쐼,28.3,78,0,0,0,0
2020-08-10T03:52:00+09:00,3.3,��쓌,5.6,��쐼,28.2,78.1,0,0,0,0
2020-08-10T03:53:00+09:00,3.3,��쓌,5.6,��쐼,28.2,78.3,0,0,0,0
2020-08-10T03:54:00+09:00,3.3,��쓌,5.6,��쐼,28.2,78.3,0,0,0,0
2020-08-10T03:55:00+09:00,3.4,��쓌,5.6,��쐼,28.2,78.4,0,0,0,0
2020-08-10T03:56:00+09:00,3.4,��쓌,5.3,��쓌,28.2,78.3,0,0,0,0
2020-08-10T03:57:00+09:00,3.4,��쓌,5.3,��쓌,28.3,78.3,0,0,0,0
2020-08-10T03:58:00+09:00,3.5,��쓌,5.3,��쓌,28.3,78.2,0,0,0,0
2020-08-10T03:59:00+09:00,3.6,��쓌,5.7,��쓌,28.3,78,0,0,0,0
2020-08-10T04:00:00+09:00,3.6,��쓌,5.7,��쓌,28.3,77.8,0,0,0,0
2020-08-10T04:01:00+09:00,3.8,��쓌,6.1,��쓌,28.3,77.8,0,0,0,0
2020-08-10T04:02:00+09:00,3.9,��쓌,6.1,��쓌,28.3,77.8,0,0,0,0
2020-08-10T04:03:00+09:00,3.9,��쓌,6.1,��쓌,28.3,77.8,0,0,0,0
2020-08-10T04:04:00+09:00,3.9,��쓌,6.1,��쓌,28.2,78,0,0,0,0
2020-08-10T04:05:00+09:00,3.8,��쓌,6.1,��쓌,28.2,78.2,0,0,0,0
2020-08-10T04:06:00+09:00,4,��쓌,8.4,��,28.3,78.3,0,0,0,0
2020-08-10T04:07:00+09:00,4.1,��쓌,8.4,��,28.3,78.2,0,0,0,0
2020-08-10T04:08:00+09:00,4.1,��쓌,8.4,��,28.3,78.1,0,0,0,0
2020-08-10T04:09:00+09:00,4,��쓌,8.4,��,28.3,78.2,0,0,0,0
2020-08-10T04:10:00+09:00,3.9,��쓌,8.4,��,28.3,78.2,0,0,0,0
2020-08-10T04:11:00+09:00,3.7,��쓌,8.4,��,28.3,78.1,0,0,0,0
2020-08-10T04:12:00+09:00,3.7,��쓌,8.4,��,28.2,78.3,0,0,0,0
2020-08-10T04:13:00+09:00,3.7,��쓌,8.4,��,28.2,78.4,0,0,0,0
2020-08-10T04:14:00+09:00,3.7,��쓌,8.4,��,28.3,78.4,0,0,0,0
2020-08-10T04:15:00+09:00,3.8,��쓌,8.4,��,28.3,78.3,0,0,0,0
2020-08-10T04:16:00+09:00,3.6,��쓌,7.3,��,28.3,78.3,0,0,0,0
2020-08-10T04:17:00+09:00,3.5,��쓌,5.3,�쓌,28.3,78.3,0,0,0,0
2020-08-10T04:18:00+09:00,3.6,��쓌,6.5,��쓌,28.3,78.4,0,0,0,0
2020-08-10T04:19:00+09:00,3.6,��쓌,6.5,��쓌,28.3,78.2,0,0,0,0
2020-08-10T04:20:00+09:00,3.6,��쓌,6.5,��쓌,28.3,78.2,0,0,0,0
2020-08-10T04:21:00+09:00,3.6,��쓌,6.5,��쓌,28.3,78.2,0,0,0,0
2020-08-10T04:22:00+09:00,3.6,��쓌,6.5,��쓌,28.3,78.2,0,0,0,0
2020-08-10T04:23:00+09:00,3.7,��쓌,6.5,��쓌,28.4,78.1,0,0,0,0
2020-08-10T04:24:00+09:00,3.8,��쓌,6.5,��쓌,28.4,77.9,0,0,0,0
2020-08-10T04:25:00+09:00,3.8,��쓌,6.5,��쓌,28.3,77.9,0,0,0,0
2020-08-10T04:26:00+09:00,3.8,��쓌,6.5,��쓌,28.4,78.1,0,0,0,0
2020-08-10T04:27:00+09:00,3.9,��쓌,6.5,��쓌,28.4,78,0,0,0,0
2020-08-10T04:28:00+09:00,3.9,��쓌,5.8,��쐼,28.4,78,0,0,0,0
2020-08-10T04:29:00+09:00,3.9,��쓌,6.2,��,28.4,78,0,0,0,0
2020-08-10T04:30:00+09:00,4,��쓌,6.2,��,28.4,78,0,0,0,0
2020-08-10T04:31:00+09:00,4.1,��쓌,6.2,��,28.4,78.1,0,0,0,0
2020-08-10T04:32:00+09:00,4,��쓌,6.2,��,28.4,78,0,0,0,0
2020-08-10T04:33:00+09:00,3.9,��쓌,6.2,��,28.3,78.1,0,0,0,0
2020-08-10T04:34:00+09:00,3.9,��쓌,6.2,��,28.4,78.2,0,0,0,0
2020-08-10T04:35:00+09:00,4,��쓌,6.2,��,28.4,78.2,0,0,0,0
2020-08-10T04:36:00+09:00,3.9,��쓌,6.2,��,28.3,78.3,0,0,0,0
2020-08-10T04:37:00+09:00,3.9,��,6.2,��,28.4,78.2,0,0,0,0
2020-08-10T04:38:00+09:00,3.8,��,6.2,��,28.4,78.2,0,0,0,0
2020-08-10T04:39:00+09:00,3.8,��쓌,6,��,28.4,78.2,0,0,0,0
2020-08-10T04:40:00+09:00,3.7,��쓌,6,��,28.4,78.3,0,0,0,0
2020-08-10T04:41:00+09:00,3.6,��쓌,6,��,28.4,78.2,0,0,0,0
2020-08-10T04:42:00+09:00,3.6,��쓌,6,��,28.4,78.2,0,0,0,0
2020-08-10T04:43:00+09:00,3.9,��,6.5,��,28.4,78.2,0,0,0,0
2020-08-10T04:44:00+09:00,3.9,��,6.5,��,28.4,78.2,0,0,0,0
2020-08-10T04:45:00+09:00,3.9,��,6.5,��,28.4,78.3,0,0,0,0
2020-08-10T04:46:00+09:00,4.1,��,7.6,��,28.4,78.3,0,0,0,0
2020-08-10T04:47:00+09:00,4.2,��,7.6,��,28.4,78.3,0,0,0,0
2020-08-10T04:48:00+09:00,4.2,��,7.6,��,28.3,78.4,0,0,0,0
2020-08-10T04:49:00+09:00,4.2,��,7.6,��,28.4,78.5,0,0,0,0
2020-08-10T04:50:00+09:00,4.2,��,7.6,��,28.3,78.5,0,0,0,0
2020-08-10T04:51:00+09:00,4.2,��,7.6,��,28.3,78.5,0,0,0,0
2020-08-10T04:52:00+09:00,4.3,��,7.6,��,28.3,78.6,0,0,0,0
2020-08-10T04:53:00+09:00,4.2,��,7.6,��,28.3,78.6,0,0,0,0
2020-08-10T04:54:00+09:00,4.2,��,7.6,��,28.3,78.6,0,0,0,0
2020-08-10T04:55:00+09:00,4.2,��,7.6,��,28.3,78.7,0,0,0,0
2020-08-10T04:56:00+09:00,4.1,��,6.6,��,28.3,78.7,0,0,0,0
2020-08-10T04:57:00+09:00,4,��,6.6,��,28.3,78.6,0,0,0,0
2020-08-10T04:58:00+09:00,4.1,��,6.6,��,28.3,78.6,0,0,0,0
2020-08-10T04:59:00+09:00,4.1,��,6.6,��,28.4,78.6,0,0,0,0
2020-08-10T05:00:00+09:00,4.2,��,6.6,��,28.4,78.5,0,0,0,0
2020-08-10T05:01:00+09:00,4.3,��,6.6,��,28.4,78.4,0,0,0,0
2020-08-10T05:02:00+09:00,4.5,��,8.6,��,28.4,78.4,0,0,0,0
2020-08-10T05:03:00+09:00,4.6,��,8.6,��,28.5,78.2,0,0,0,0
2020-08-10T05:04:00+09:00,4.7,��,8.6,��,28.4,78.1,0,0,0,0
2020-08-10T05:05:00+09:00,4.6,��,8.6,��,28.4,78.1,0,0,0,0
2020-08-10T05:06:00+09:00,4.6,��,8.6,��,28.4,78.2,0,0,0,0
2020-08-10T05:07:00+09:00,4.8,��,8.6,��,28.4,78.2,0,0,0,0
2020-08-10T05:08:00+09:00,5,��,8.6,��,28.4,78.1,0,0,0,0
2020-08-10T05:09:00+09:00,5,��,8.6,��,28.4,78.1,0,0,0,0
2020-08-10T05:10:00+09:00,5.1,��,8.6,��,28.4,78.2,0,0,0,0
2020-08-10T05:11:00+09:00,5,��,8.6,��,28.4,78.2,0,0,0,0
2020-08-10T05:12:00+09:00,4.8,��,8,��,28.4,78.2,0,0,0,0
2020-08-10T05:13:00+09:00,4.7,��,8,��,28.4,78.2,0,0,0,0
2020-08-10T05:14:00+09:00,4.7,��,8,��,28.4,78.2,0,0,0,0
2020-08-10T05:15:00+09:00,4.8,��,8,��,28.4,78.1,0,0,0,0
2020-08-10T05:16:00+09:00,4.7,��,8,��,28.4,78,0,0,0,0
2020-08-10T05:17:00+09:00,4.5,��,7.5,��,28.4,78.1,0,0,0,0
2020-08-10T05:18:00+09:00,4.3,��,6.8,��,28.3,78.4,0,0,0,0
2020-08-10T05:19:00+09:00,4.2,��,6.8,��,28.3,78.7,0,0,0,0
2020-08-10T05:20:00+09:00,4.2,��,6.6,��,28.3,78.9,0,0,0,0
2020-08-10T05:21:00+09:00,4.2,��,6.6,��,28.4,78.6,0,0,0,0
2020-08-10T05:22:00+09:00,4.1,��,6.5,��,28.4,78.3,0,0,0,0
2020-08-10T05:23:00+09:00,4.2,��,6.5,��,28.4,78.2,0,0,0,0
2020-08-10T05:24:00+09:00,4.2,��,6.5,��,28.5,77.9,0,0,0,0
2020-08-10T05:25:00+09:00,4,��,6.5,��,28.5,77.7,0,0,0,0
2020-08-10T05:26:00+09:00,4,��,6.5,��,28.5,77.8,0,0,0,0
2020-08-10T05:27:00+09:00,4.1,��,6.5,��,28.5,77.7,0,0,0,0
2020-08-10T05:28:00+09:00,4.1,��,6.5,��,28.4,77.8,0,0,0,0
2020-08-10T05:29:00+09:00,4.1,��,6.5,��,28.4,78,0,0,0,0
2020-08-10T05:30:00+09:00,4,��,6.4,��,28.4,78.2,0,0,0,0
2020-08-10T05:31:00+09:00,4,��,6,��,28.4,78.2,0,0,0,0
2020-08-10T05:32:00+09:00,4,��,6,��,28.4,78,0,0,0,0
2020-08-10T05:33:00+09:00,4,��,6,��,28.4,78,0,0,0,0
2020-08-10T05:34:00+09:00,4,��,7,��,28.4,77.9,0,0,0,0
2020-08-10T05:35:00+09:00,4.2,��,7,��,28.4,78,0,0,0,0
2020-08-10T05:36:00+09:00,4.1,��,7,��,28.4,78,0,0,0,0
2020-08-10T05:37:00+09:00,4,��,7,��,28.4,78,0,0,0,0
2020-08-10T05:38:00+09:00,4,��,7,��,28.5,78,0,0,0,0
2020-08-10T05:39:00+09:00,4,��,7,��,28.5,77.8,0,0,0,0
2020-08-10T05:40:00+09:00,4,��,7,��,28.5,77.6,0,0,0,0
2020-08-10T05:41:00+09:00,4,��,7,��,28.5,77.6,0,0,0,0
2020-08-10T05:42:00+09:00,4.1,��쓌,7,��,28.5,77.5,0,0,0,0
2020-08-10T05:43:00+09:00,4,��쓌,7,��,28.5,77.6,0,0,0,0
2020-08-10T05:44:00+09:00,4,��쓌,6.1,��,28.5,77.6,0,0,0,0
2020-08-10T05:45:00+09:00,3.8,��쓌,5.8,��쓌,28.5,77.6,0,0,0,0
2020-08-10T05:46:00+09:00,3.8,��쓌,5.8,��쓌,28.5,77.7,0,0,0,0
2020-08-10T05:47:00+09:00,3.9,��쓌,6.4,��쓌,28.5,77.6,0,0,0,0
2020-08-10T05:48:00+09:00,4.1,��쓌,6.8,��쓌,28.6,77.3,0,0,0,0
2020-08-10T05:49:00+09:00,4.1,��쓌,6.8,��쓌,28.6,77.2,0,0,0,0
2020-08-10T05:50:00+09:00,4.2,��쓌,6.8,��쓌,28.6,77.2,0,0,0,0
2020-08-10T05:51:00+09:00,4.3,��쓌,6.8,��쓌,28.6,77.2,0,0,0,0
2020-08-10T05:52:00+09:00,4.4,��쓌,6.8,��쓌,28.6,77.1,0,0,0,0
2020-08-10T05:53:00+09:00,4.5,��쓌,6.8,��쓌,28.6,77,0,0,0,0
2020-08-10T05:54:00+09:00,4.4,��,6.8,��쓌,28.5,77.1,0,0,0,0
2020-08-10T05:55:00+09:00,4.6,��쓌,6.8,��쓌,28.5,77.3,0,0,0,0
2020-08-10T05:56:00+09:00,4.6,��쓌,6.8,��쓌,28.6,77.2,0,0,0,0
2020-08-10T05:57:00+09:00,4.5,��,6.8,��쓌,28.6,77.2,0,0,0,0
2020-08-10T05:58:00+09:00,4.3,��,6.8,��,28.5,77.2,0,0,0,0
2020-08-10T05:59:00+09:00,4.4,��,6.8,��,28.6,77,0,0,0,0
2020-08-10T06:00:00+09:00,4.4,��,6.8,��,28.6,76.7,0,0,0,0
2020-08-10T06:01:00+09:00,4.3,��,6.8,��,28.7,76.6,0,0,0,0
2020-08-10T06:02:00+09:00,4.2,��,6.7,��,28.6,76.7,0,0,0,0
2020-08-10T06:03:00+09:00,4.1,��쓌,6.7,��,28.6,76.8,0,0,0,0
2020-08-10T06:04:00+09:00,4.2,��쓌,6.7,��,28.6,76.9,0,0,0,0
2020-08-10T06:05:00+09:00,4.2,��쓌,6.7,��,28.6,76.8,0,0,0,0
2020-08-10T06:06:00+09:00,4.3,��쓌,6.7,��,28.7,76.6,0,0,0,0
2020-08-10T06:07:00+09:00,4.3,��쓌,6.7,��,28.7,76.4,0,0,0,0
2020-08-10T06:08:00+09:00,4.3,��쓌,6.7,��,28.6,76.5,0,0,0,0
2020-08-10T06:09:00+09:00,4.2,��쓌,6.5,��쓌,28.6,76.6,0,0,0,0
2020-08-10T06:10:00+09:00,4.2,��쓌,6.5,��쓌,28.6,76.5,0,0,0,0
2020-08-10T06:11:00+09:00,4.2,��쓌,6.9,��쐼,28.6,76.5,0,0,0,0
2020-08-10T06:12:00+09:00,4.2,��쓌,6.9,��쐼,28.6,76.7,0,0,0,0
2020-08-10T06:13:00+09:00,4.4,��쓌,6.9,��쐼,28.6,76.6,0,0,0,0
2020-08-10T06:14:00+09:00,4.3,��쓌,6.9,��쐼,28.6,76.7,0,0,0,0
2020-08-10T06:15:00+09:00,4.3,��쓌,6.9,��쐼,28.7,76.6,0,0,0,0
2020-08-10T06:16:00+09:00,4.2,��쓌,6.9,��쐼,28.6,76.6,0,0,0,0
2020-08-10T06:17:00+09:00,4.2,��쓌,6.9,��쐼,28.6,76.6,0,0,0,0
2020-08-10T06:18:00+09:00,4.2,��쓌,6.9,��쐼,28.5,77,0,0,0,0
2020-08-10T06:19:00+09:00,4.1,��쓌,6.9,��쐼,28.6,77.2,0,0,0,0
2020-08-10T06:20:00+09:00,4.1,��쓌,6.9,��쐼,28.6,77,0,0,0,0
2020-08-10T06:21:00+09:00,4.1,��쓌,6.6,��쓌,28.6,77.1,0,0,0,0
2020-08-10T06:22:00+09:00,4.1,��쓌,6.6,��쓌,28.7,76.9,0,0,0,0
2020-08-10T06:23:00+09:00,4,��쓌,6.1,��쓌,28.7,76.8,0,0,0,0
2020-08-10T06:24:00+09:00,4,��쓌,6.1,��쓌,28.6,76.8,0,0,0,0
2020-08-10T06:25:00+09:00,4,��쓌,6.1,��쓌,28.6,76.9,0,0,0,0
2020-08-10T06:26:00+09:00,3.9,��쓌,6.1,��쓌,28.6,77,0,0,0,0
2020-08-10T06:27:00+09:00,3.9,��쓌,6.1,��쓌,28.6,77,0,0,0,0
2020-08-10T06:28:00+09:00,3.9,��쓌,6.1,��쓌,28.6,77.1,0,0,0,0
2020-08-10T06:29:00+09:00,4,��쓌,6.1,��쓌,28.6,77.2,0,0,0,0
2020-08-10T06:30:00+09:00,4.2,��쓌,7.8,��,28.7,76.9,0,0,0,0
2020-08-10T06:31:00+09:00,4.1,��쓌,7.8,��,28.7,76.8,0,0,0,0
2020-08-10T06:32:00+09:00,4,��쓌,7.8,��,28.7,76.9,0,0,0,0
2020-08-10T06:33:00+09:00,3.9,��쓌,7.8,��,28.6,77.1,0,0,0,0
2020-08-10T06:34:00+09:00,3.9,��,7.8,��,28.6,77.4,0,0,0,0
2020-08-10T06:35:00+09:00,3.9,��,7.8,��,28.7,77.2,0,0,0,0
2020-08-10T06:36:00+09:00,3.9,��,7.8,��,28.7,77,0,0,0,0
2020-08-10T06:37:00+09:00,3.9,��,7.8,��,28.7,76.9,0,0,0,0
2020-08-10T06:38:00+09:00,3.8,��,7.8,��,28.7,77,0,0,0,0
2020-08-10T06:39:00+09:00,3.7,��쓌,7.8,��,28.7,77,0,0,0,0
2020-08-10T06:40:00+09:00,3.5,��쓌,6.3,��쐼,28.7,77,0,0,0,0
2020-08-10T06:41:00+09:00,3.6,��,6.3,��쐼,28.7,77,0,0,0,0
2020-08-10T06:42:00+09:00,3.7,��,6.3,��쐼,28.7,77,0,0,0,0
2020-08-10T06:43:00+09:00,3.9,��,6.3,��쐼,28.7,77.1,0,0,0,0
2020-08-10T06:44:00+09:00,4,��,6.3,��쐼,28.6,77.4,0,0,0,0
2020-08-10T06:45:00+09:00,4,��,6.3,��쐼,28.6,77.5,0,0,0,0
2020-08-10T06:46:00+09:00,4.1,��,6.3,��쐼,28.5,77.8,0,0,0,0
2020-08-10T06:47:00+09:00,4.3,��,7.6,��,28.6,78,0,0,0,0
2020-08-10T06:48:00+09:00,4.3,��,7.6,��,28.6,77.7,0,0,0,0
2020-08-10T06:49:00+09:00,4.4,��,7.6,��,28.6,77.6,0,0,0,0